Location: Mahannah Oil Field
(37.4664°N, 96.6003°W)
Time: 01:58:00
(UTC+00:00)

Tiros 1 despin weight - Pass Details

Date: 24 January 2021
Orbit: 593 x 642 km, 48.2° (Epoch: 25 February)

Event Time Altitude Azimuth Distance (km) Brightness Sun altitude
Rises 23:22:31 0° 295° (WNW) 2,871 ? 2.7°
Reaches altitude 10° 23:25:21 10° 312° (NW) 1,957 ? 2.2°
Maximum altitude 23:28:42 20° 1° (N) 1,399 ? 1.6°
Drops below altitude 10° 23:32:01 10° 49° (NE) 1,937 ? 1.0°
Sets 23:34:49 0° 67° (ENE) 2,833 ? 0.5°
Enters shadow 23:34:55 - 67° (ENE) 2,870 ? 0.5°
